Time,TemperatureF,DewpointF,PressureIn,WindDirection,WindDirectionDegrees,WindSpeedMPH,WindSpeedGustMPH,Humidity,HourlyPrecipIn,Conditions,Clouds,dailyrainin,SoftwareType,DateUTC
2014-09-19 00:03:00,63.6,43.0,29.92,NW,307,0.0,2.0,47,0.00,,BKN095,0.00,VWS V15.00,2014-09-19 07:03:00,
2014-09-19 00:08:00,63.5,42.9,29.92,NW,312,0.0,2.0,47,0.00,,BKN095,0.00,VWS V15.00,2014-09-19 07:08:00,
2014-09-19 00:13:00,63.5,42.9,29.92,WNW,302,2.0,2.0,47,0.00,,BKN095,0.00,VWS V15.00,2014-09-19 07:13:00,
2014-09-19 00:18:00,63.5,42.9,29.92,NW,306,0.0,2.0,47,0.00,,BKN095,0.00,VWS V15.00,2014-09-19 07:18:00,
2014-09-19 00:23:00,63.5,42.9,29.92,NW,307,1.0,2.0,47,0.00,,BKN095,0.00,VWS V15.00,2014-09-19 07:23:00,
2014-09-19 00:28:00,63.6,43.0,29.92,NW,307,1.0,2.0,47,0.00,,BKN095,0.00,VWS V15.00,2014-09-19 07:28:00,
2014-09-19 00:33:00,63.4,42.8,29.93,NW,324,2.0,2.0,47,0.00,,BKN095,0.00,VWS V15.00,2014-09-19 07:33:00,
2014-09-19 00:38:00,63.4,42.8,29.93,NNW,331,0.0,4.0,47,0.00,,BKN095,0.00,VWS V15.00,2014-09-19 07:38:00,
2014-09-19 00:43:00,63.4,42.8,29.93,NNE,17,1.0,4.0,47,0.00,,BKN095,0.00,VWS V15.00,2014-09-19 07:43:00,
2014-09-19 00:48:00,63.4,42.8,29.93,NNW,333,1.0,4.0,47,0.00,,BKN095,0.00,VWS V15.00,2014-09-19 07:48:00,
2014-09-19 00:53:00,63.4,42.8,29.93,NNE,12,2.0,4.0,47,0.00,,BKN095,0.00,VWS V15.00,2014-09-19 07:53:00,
2014-09-19 00:58:00,63.3,42.8,29.93,NNE,20,0.0,4.0,47,0.00,,BKN095,0.00,VWS V15.00,2014-09-19 07:58:00,
2014-09-19 01:02:00,63.1,42.6,29.93,NNE,20,0.0,4.0,47,0.00,,BKN095,0.00,VWS V15.00,2014-09-19 08:02:00,
2014-09-19 01:07:00,62.8,42.8,29.93,North,354,0.0,4.0,48,0.00,,BKN095,0.00,VWS V15.00,2014-09-19 08:07:00,
2014-09-19 01:12:00,62.6,42.7,29.93,NNW,342,0.0,4.0,48,0.00,,BKN095,0.00,VWS V15.00,2014-09-19 08:12:00,
2014-09-19 01:17:00,62.5,43.1,29.93,NNE,30,0.0,4.0,49,0.00,,BKN095,0.00,VWS V15.00,2014-09-19 08:17:00,
2014-09-19 01:22:00,62.3,42.9,29.94,NNE,31,2.0,4.0,49,0.00,,BKN095,0.00,VWS V15.00,2014-09-19 08:22:00,
2014-09-19 01:27:00,62.1,42.7,29.93,NNW,333,0.0,4.0,49,0.00,,BKN095,0.00,VWS V15.00,2014-09-19 08:27:00,
2014-09-19 01:32:00,62.0,42.6,29.94,NNE,27,1.0,4.0,49,0.00,,BKN095,0.00,VWS V15.00,2014-09-19 08:32:00,
2014-09-19 01:37:00,61.7,42.4,29.94,NNW,344,0.0,4.0,49,0.00,,BKN095,0.00,VWS V15.00,2014-09-19 08:37:00,
2014-09-19 01:42:00,61.5,42.7,29.94,NNW,344,0.0,4.0,50,0.00,,BKN095,0.00,VWS V15.00,2014-09-19 08:42:00,
2014-09-19 01:47:00,61.2,41.9,29.94,NNW,345,0.0,4.0,49,0.00,,BKN095,0.00,VWS V15.00,2014-09-19 08:47:00,
2014-09-19 01:52:00,61.2,41.9,29.94,NNW,344,0.0,4.0,49,0.00,,BKN095,0.00,VWS V15.00,2014-09-19 08:52:00,
2014-09-19 01:57:00,61.1,41.8,29.94,NNW,344,1.0,1.0,49,0.00,,BKN095,0.00,VWS V15.00,2014-09-19 08:57:00,
2014-09-19 02:02:00,61.1,41.8,29.94,NNW,331,0.0,1.0,49,0.00,,BKN090,0.00,VWS V15.00,2014-09-19 09:02:00,
2014-09-19 02:07:00,61.1,41.8,29.94,NNW,335,0.0,2.0,49,0.00,,BKN090,0.00,VWS V15.00,2014-09-19 09:07:00,
2014-09-19 02:12:00,60.9,41.6,29.94,NNW,335,0.0,2.0,49,0.00,,BKN090,0.00,VWS V15.00,2014-09-19 09:12:00,
2014-09-19 02:17:00,60.7,41.5,29.94,NNW,335,0.0,2.0,49,0.00,,BKN090,0.00,VWS V15.00,2014-09-19 09:17:00,
2014-09-19 02:22:00,60.7,41.5,29.94,NNW,336,0.0,2.0,49,0.00,,BKN090,0.00,VWS V15.00,2014-09-19 09:22:00,
2014-09-19 02:27:00,60.6,41.4,29.94,NNW,335,0.0,2.0,49,0.00,,BKN090,0.00,VWS V15.00,2014-09-19 09:27:00,
2014-09-19 02:32:00,60.6,41.4,29.94,NNW,336,0.0,2.0,49,0.00,,BKN090,0.00,VWS V15.00,2014-09-19 09:32:00,
2014-09-19 02:37:00,60.4,41.2,29.94,NNW,336,0.0,2.0,49,0.00,,BKN090,0.00,VWS V15.00,2014-09-19 09:37:00,
2014-09-19 02:42:00,60.1,41.4,29.95,NNW,335,0.0,2.0,50,0.00,,BKN090,0.00,VWS V15.00,2014-09-19 09:42:00,
2014-09-19 02:47:00,59.7,41.6,29.94,NNW,336,0.0,2.0,51,0.00,,BKN090,0.00,VWS V15.00,2014-09-19 09:47:00,
2014-09-19 02:52:00,59.9,41.2,29.95,NNW,336,0.0,2.0,50,0.00,,BKN090,0.00,VWS V15.00,2014-09-19 09:52:00,
2014-09-19 02:57:00,60.0,41.3,29.94,NNW,340,0.0,2.0,50,0.00,,BKN090,0.00,VWS V15.00,2014-09-19 09:57:00,
2014-09-19 03:02:00,59.9,41.2,29.95,NE,49,0.0,2.0,50,0.00,,,0.00,VWS V15.00,2014-09-19 10:02:00,
2014-09-19 03:07:00,59.8,41.7,29.95,East,81,0.0,2.0,51,0.00,,,0.00,VWS V15.00,2014-09-19 10:07:00,
2014-09-19 03:12:00,59.5,41.4,29.95,East,81,0.0,2.0,51,0.00,,,0.00,VWS V15.00,2014-09-19 10:12:00,
2014-09-19 03:17:00,59.3,41.7,29.95,ESE,102,1.0,2.0,52,0.00,,,0.00,VWS V15.00,2014-09-19 10:17:00,
2014-09-19 03:22:00,59.2,41.6,29.95,ESE,102,0.0,2.0,52,0.00,,,0.00,VWS V15.00,2014-09-19 10:22:00,
2014-09-19 03:27:00,58.9,41.8,29.95,ESE,102,0.0,2.0,53,0.00,,,0.00,VWS V15.00,2014-09-19 10:27:00,
2014-09-19 03:32:00,58.6,41.5,29.95,ESE,102,0.0,2.0,53,0.00,,,0.00,VWS V15.00,2014-09-19 10:32:00,
2014-09-19 03:37:00,58.4,41.3,29.95,NW,317,0.0,2.0,53,0.00,,,0.00,VWS V15.00,2014-09-19 10:37:00,
2014-09-19 03:42:00,58.4,41.8,29.95,NNW,340,0.0,3.0,54,0.00,,,0.00,VWS V15.00,2014-09-19 10:42:00,
2014-09-19 03:47:00,58.5,41.9,29.95,ENE,66,0.0,3.0,54,0.00,,,0.00,VWS V15.00,2014-09-19 10:47:00,
2014-09-19 03:49:00,58.5,41.5,29.95,ENE,78,0.0,3.0,53,0.00,,,0.00,VWS V15.00,2014-09-19 10:49:00,
2014-09-19 03:54:00,58.5,41.5,29.95,ENE,78,0.0,3.0,53,0.00,,,0.00,VWS V15.00,2014-09-19 10:54:00,
2014-09-19 03:59:00,58.4,41.3,29.95,East,89,0.0,1.0,53,0.00,,,0.00,VWS V15.00,2014-09-19 10:59:00,
2014-09-19 04:04:00,58.4,41.3,29.95,East,89,0.0,1.0,53,0.00,,,0.00,VWS V15.00,2014-09-19 11:04:00,
2014-09-19 04:09:00,58.4,41.3,29.95,NE,41,0.0,1.0,53,0.00,,,0.00,VWS V15.00,2014-09-19 11:09:00,
2014-09-19 04:14:00,58.0,41.5,29.96,NW,326,0.0,1.0,54,0.00,,,0.00,VWS V15.00,2014-09-19 11:14:00,
2014-09-19 04:19:00,57.8,41.8,29.96,NW,326,0.0,1.0,55,0.00,,,0.00,VWS V15.00,2014-09-19 11:19:00,
2014-09-19 04:24:00,57.6,41.6,29.96,NW,326,0.0,1.0,55,0.00,,,0.00,VWS V15.00,2014-09-19 11:24:00,
2014-09-19 04:29:00,57.2,41.7,29.96,NW,326,0.0,1.0,56,0.00,,,0.00,VWS V15.00,2014-09-19 11:29:00,
2014-09-19 04:34:00,56.8,41.3,29.95,NW,326,0.0,1.0,56,0.00,,,0.00,VWS V15.00,2014-09-19 11:34:00,
2014-09-19 04:39:00,56.6,41.6,29.95,NW,326,0.0,1.0,57,0.00,,,0.00,VWS V15.00,2014-09-19 11:39:00,
2014-09-19 04:44:00,56.3,41.3,29.95,NW,326,0.0,1.0,57,0.00,,,0.00,VWS V15.00,2014-09-19 11:44:00,
2014-09-19 04:49:00,56.2,41.6,29.95,NW,326,0.0,1.0,58,0.00,,,0.00,VWS V15.00,2014-09-19 11:49:00,
2014-09-19 04:54:00,56.2,41.6,29.96,NW,326,0.0,1.0,58,0.00,,,0.00,VWS V15.00,2014-09-19 11:54:00,
2014-09-19 04:59:00,56.0,41.5,29.96,NW,326,0.0,1.0,58,0.00,,,0.00,VWS V15.00,2014-09-19 11:59:00,
2014-09-19 05:04:00,55.8,41.7,29.96,NW,326,0.0,1.0,59,0.00,,,0.00,VWS V15.00,2014-09-19 12:04:00,
2014-09-19 05:09:00,55.6,41.5,29.96,NW,326,0.0,1.0,59,0.00,,,0.00,VWS V15.00,2014-09-19 12:09:00,
2014-09-19 05:14:00,55.5,41.4,29.96,NW,326,0.0,1.0,59,0.00,,,0.00,VWS V15.00,2014-09-19 12:14:00,
2014-09-19 05:19:00,55.5,41.4,29.96,WNW,299,0.0,1.0,59,0.00,,,0.00,VWS V15.00,2014-09-19 12:19:00,
2014-09-19 05:24:00,55.5,41.4,29.97,SSW,208,0.0,1.0,59,0.00,,,0.00,VWS V15.00,2014-09-19 12:24:00,
2014-09-19 05:29:00,55.5,41.9,29.97,SSW,209,0.0,1.0,60,0.00,,,0.00,VWS V15.00,2014-09-19 12:29:00,
2014-09-19 05:34:00,55.3,41.7,29.97,SSW,208,0.0,1.0,60,0.00,,,0.00,VWS V15.00,2014-09-19 12:34:00,
2014-09-19 05:39:00,55.4,41.8,29.97,SSW,213,0.0,1.0,60,0.00,,,0.00,VWS V15.00,2014-09-19 12:39:00,
2014-09-19 05:44:00,55.5,41.9,29.97,SSW,213,0.0,1.0,60,0.00,,,0.00,VWS V15.00,2014-09-19 12:44:00,
2014-09-19 05:48:00,55.5,41.9,29.97,SSW,212,0.0,1.0,60,0.00,,,0.00,VWS V15.00,2014-09-19 12:48:00,
2014-09-19 05:53:00,55.1,41.9,29.97,SE,127,0.0,1.0,61,0.00,,,0.00,VWS V15.00,2014-09-19 12:53:00,
2014-09-19 05:58:00,54.8,42.0,29.98,SE,127,0.0,0.0,62,0.00,,,0.00,VWS V15.00,2014-09-19 12:58:00,
2014-09-19 06:03:00,54.5,42.2,29.98,SE,130,0.0,0.0,63,0.00,,,0.00,VWS V15.00,2014-09-19 13:03:00,
2014-09-19 06:08:00,54.8,42.5,29.98,SSW,206,2.0,2.0,63,0.00,,,0.00,VWS V15.00,2014-09-19 13:08:00,
2014-09-19 06:13:00,55.2,42.4,29.98,SSW,210,1.0,2.0,62,0.00,,,0.00,VWS V15.00,2014-09-19 13:13:00,
2014-09-19 06:18:00,55.5,42.7,29.98,SSW,203,2.0,3.0,62,0.00,,,0.00,VWS V15.00,2014-09-19 13:18:00,
2014-09-19 06:23:00,55.7,42.9,29.98,SSW,210,1.0,3.0,62,0.00,,,0.00,VWS V15.00,2014-09-19 13:23:00,
2014-09-19 06:28:00,55.8,43.0,29.98,SSW,212,2.0,3.0,62,0.00,,,0.00,VWS V15.00,2014-09-19 13:28:00,
2014-09-19 06:33:00,55.8,43.0,29.99,SSW,207,1.0,3.0,62,0.00,,,0.00,VWS V15.00,2014-09-19 13:33:00,
2014-09-19 06:38:00,55.8,43.0,29.99,SW,234,2.0,3.0,62,0.00,,,0.00,VWS V15.00,2014-09-19 13:38:00,
2014-09-19 06:43:00,55.7,42.9,29.99,SSW,207,1.0,3.0,62,0.00,,,0.00,VWS V15.00,2014-09-19 13:43:00,
2014-09-19 06:48:00,55.7,42.9,29.99,SSW,213,0.0,3.0,62,0.00,,,0.00,VWS V15.00,2014-09-19 13:48:00,
2014-09-19 06:53:00,55.6,42.8,30.00,SSW,206,1.0,3.0,62,0.00,,,0.00,VWS V15.00,2014-09-19 13:53:00,
2014-09-19 06:58:00,55.7,42.9,30.00,SW,217,2.0,3.0,62,0.00,,BKN090,0.00,VWS V15.00,2014-09-19 13:58:00,
2014-09-19 07:03:00,55.7,42.9,30.00,South,181,2.0,3.0,62,0.00,,BKN090,0.00,VWS V15.00,2014-09-19 14:03:00,
2014-09-19 07:08:00,55.7,42.9,30.00,SSW,212,2.0,3.0,62,0.00,,BKN090,0.00,VWS V15.00,2014-09-19 14:08:00,
2014-09-19 07:13:00,55.7,42.9,30.00,SSW,210,1.0,3.0,62,0.00,,BKN090,0.00,VWS V15.00,2014-09-19 14:13:00,
2014-09-19 07:18:00,55.6,43.2,30.00,SSW,200,2.0,3.0,63,0.00,,BKN090,0.00,VWS V15.00,2014-09-19 14:18:00,
2014-09-19 07:23:00,55.5,43.1,30.00,SSW,212,1.0,4.0,63,0.00,,BKN090,0.00,VWS V15.00,2014-09-19 14:23:00,
2014-09-19 07:28:00,55.5,43.1,30.00,SSW,210,2.0,4.0,63,0.00,,BKN090,0.00,VWS V15.00,2014-09-19 14:28:00,
2014-09-19 07:33:00,55.5,43.1,30.00,SSW,207,0.0,4.0,63,0.00,,BKN090,0.00,VWS V15.00,2014-09-19 14:33:00,
2014-09-19 07:38:00,55.6,43.2,30.00,SW,214,0.0,4.0,63,0.00,,BKN090,0.00,VWS V15.00,2014-09-19 14:38:00,
2014-09-19 07:43:00,55.6,43.2,30.01,SSW,210,0.0,4.0,63,0.00,,BKN090,0.00,VWS V15.00,2014-09-19 14:43:00,
2014-09-19 07:48:00,55.7,43.3,30.01,SW,214,1.0,4.0,63,0.00,,BKN090,0.00,VWS V15.00,2014-09-19 14:48:00,
2014-09-19 07:53:00,55.7,43.3,30.01,SSW,202,1.0,4.0,63,0.00,,BKN090,0.00,VWS V15.00,2014-09-19 14:53:00,
2014-09-19 07:58:00,55.7,43.7,30.00,SW,220,2.0,2.0,64,0.00,,SCT150,0.00,VWS V15.00,2014-09-19 14:58:00,
2014-09-19 08:03:00,55.8,43.8,30.00,SSW,210,1.0,2.0,64,0.00,,SCT150,0.00,VWS V15.00,2014-09-19 15:03:00,
2014-09-19 08:08:00,55.8,44.2,30.00,SSW,205,1.0,2.0,65,0.00,,SCT150,0.00,VWS V15.00,2014-09-19 15:08:00,
2014-09-19 08:13:00,55.8,43.8,30.01,SSW,210,1.0,3.0,64,0.00,,SCT150,0.00,VWS V15.00,2014-09-19 15:13:00,
2014-09-19 08:18:00,55.9,43.9,30.00,SSW,207,0.0,3.0,64,0.00,,SCT150,0.00,VWS V15.00,2014-09-19 15:18:00,
2014-09-19 08:23:00,56.2,44.2,30.01,SSW,207,0.0,3.0,64,0.00,,SCT150,0.00,VWS V15.00,2014-09-19 15:23:00,
2014-09-19 08:28:00,56.8,44.3,30.01,SSW,207,0.0,3.0,63,0.00,,SCT150,0.00,VWS V15.00,2014-09-19 15:28:00,
2014-09-19 08:33:00,57.8,44.9,30.01,SSW,207,0.0,3.0,62,0.00,,SCT150,0.00,VWS V15.00,2014-09-19 15:33:00,
2014-09-19 08:38:00,58.8,45.0,30.01,SSW,207,0.0,3.0,60,0.00,,SCT150,0.00,VWS V15.00,2014-09-19 15:38:00,
2014-09-19 08:43:00,59.7,45.4,30.01,SSW,207,0.0,3.0,59,0.00,,SCT150,0.00,VWS V15.00,2014-09-19 15:43:00,
2014-09-19 08:48:00,60.1,43.9,30.01,SSW,207,0.0,3.0,55,0.00,,SCT150,0.00,VWS V15.00,2014-09-19 15:48:00,
2014-09-19 08:53:00,60.3,44.6,30.01,SSW,207,0.0,3.0,56,0.00,,SCT150,0.00,VWS V15.00,2014-09-19 15:53:00,
2014-09-19 08:58:00,61.2,44.4,30.01,SSW,207,0.0,3.0,54,0.00,,SCT150,0.00,VWS V15.00,2014-09-19 15:58:00,
2014-09-19 09:03:00,61.8,45.0,30.01,SSW,207,0.0,3.0,54,0.00,,SCT150,0.00,VWS V15.00,2014-09-19 16:03:00,
2014-09-19 09:08:00,62.3,44.5,30.01,ENE,70,0.0,3.0,52,0.00,,SCT150,0.00,VWS V15.00,2014-09-19 16:08:00,
2014-09-19 09:13:00,62.6,44.8,30.01,ENE,70,0.0,3.0,52,0.00,,SCT150,0.00,VWS V15.00,2014-09-19 16:13:00,
2014-09-19 09:18:00,63.4,45.0,30.01,ENE,70,0.0,3.0,51,0.00,,SCT150,0.00,VWS V15.00,2014-09-19 16:18:00,
2014-09-19 09:23:00,64.1,44.6,30.01,ESE,110,0.0,3.0,49,0.00,,SCT150,0.00,VWS V15.00,2014-09-19 16:23:00,
2014-09-19 09:28:00,64.7,45.1,30.02,ESE,110,0.0,3.0,49,0.00,,SCT150,0.00,VWS V15.00,2014-09-19 16:28:00,
2014-09-19 09:33:00,64.9,45.3,30.01,ESE,107,0.0,3.0,49,0.00,,SCT150,0.00,VWS V15.00,2014-09-19 16:33:00,
2014-09-19 09:38:00,65.2,45.0,30.02,ESE,107,0.0,3.0,48,0.00,,SCT150,0.00,VWS V15.00,2014-09-19 16:38:00,
2014-09-19 09:43:00,65.1,43.8,30.02,WNW,301,0.0,3.0,46,0.00,,SCT150,0.00,VWS V15.00,2014-09-19 16:43:00,
2014-09-19 09:48:00,64.6,45.6,30.02,ENE,57,0.0,3.0,50,0.00,,SCT150,0.00,VWS V15.00,2014-09-19 16:48:00,
2014-09-19 09:53:00,64.7,44.0,30.02,NNW,330,0.0,3.0,47,0.00,,SCT150,0.00,VWS V15.00,2014-09-19 16:53:00,
2014-09-19 09:58:00,64.6,44.5,30.02,North,4,2.0,3.0,48,0.00,,FEW100,0.00,VWS V15.00,2014-09-19 16:58:00,
2014-09-19 10:03:00,64.6,44.5,30.02,NW,314,2.0,3.0,48,0.00,,FEW100,0.00,VWS V15.00,2014-09-19 17:03:00,
2014-09-19 10:08:00,64.7,44.6,30.02,NNW,342,1.0,3.0,48,0.00,,FEW100,0.00,VWS V15.00,2014-09-19 17:08:00,
2014-09-19 10:13:00,64.9,45.3,30.02,SE,124,0.0,3.0,49,0.00,,FEW100,0.00,VWS V15.00,2014-09-19 17:13:00,
2014-09-19 10:18:00,65.4,45.2,30.02,NNE,22,2.0,3.0,48,0.00,,FEW100,0.00,VWS V15.00,2014-09-19 17:18:00,
2014-09-19 10:23:00,65.5,45.3,30.02,NNE,32,2.0,5.0,48,0.00,,FEW100,0.00,VWS V15.00,2014-09-19 17:23:00,
2014-09-19 10:28:00,65.6,44.3,30.02,North,359,0.0,7.0,46,0.00,,FEW100,0.00,VWS V15.00,2014-09-19 17:28:00,
2014-09-19 10:33:00,65.7,44.9,30.02,NNW,341,2.0,7.0,47,0.00,,FEW100,0.00,VWS V15.00,2014-09-19 17:33:00,
2014-09-19 10:38:00,66.0,45.2,30.02,NNE,27,3.0,7.0,47,0.00,,FEW100,0.00,VWS V15.00,2014-09-19 17:38:00,
2014-09-19 10:43:00,66.1,44.2,30.02,NNW,337,1.0,7.0,45,0.00,,FEW100,0.00,VWS V15.00,2014-09-19 17:43:00,
2014-09-19 10:48:00,66.4,44.4,30.02,NNE,25,0.0,7.0,45,0.00,,FEW100,0.00,VWS V15.00,2014-09-19 17:48:00,
2014-09-19 10:53:00,67.0,45.6,30.02,NNW,334,2.0,7.0,46,0.00,,FEW100,0.00,VWS V15.00,2014-09-19 17:53:00,
2014-09-19 10:58:00,67.5,44.8,30.02,NNW,328,3.0,7.0,44,0.00,,FEW100,0.00,VWS V15.00,2014-09-19 17:58:00,
2014-09-19 11:03:00,67.8,45.1,30.02,NE,38,1.0,7.0,44,0.00,,FEW220,0.00,VWS V15.00,2014-09-19 18:03:00,
2014-09-19 11:08:00,68.2,44.9,30.01,NNW,340,0.0,7.0,43,0.00,,FEW220,0.00,VWS V15.00,2014-09-19 18:08:00,
2014-09-19 11:13:00,68.4,44.4,30.01,NNW,335,2.0,7.0,42,0.00,,FEW220,0.00,VWS V15.00,2014-09-19 18:13:00,
2014-09-19 11:14:00,68.5,44.5,30.01,NNW,346,1.0,7.0,42,0.00,,FEW220,0.00,VWS V15.00,2014-09-19 18:14:00,
2014-09-19 11:19:00,68.6,44.0,30.01,East,101,4.0,7.0,41,0.00,,FEW220,0.00,VWS V15.00,2014-09-19 18:19:00,
2014-09-19 11:24:00,69.1,44.4,30.01,NNE,20,0.0,7.0,41,0.00,,FEW220,0.00,VWS V15.00,2014-09-19 18:24:00,
2014-09-19 11:29:00,69.8,44.4,30.01,NNW,341,2.0,7.0,40,0.00,,FEW220,0.00,VWS V15.00,2014-09-19 18:29:00,
2014-09-19 11:34:00,70.0,43.2,30.01,NW,312,2.0,7.0,38,0.00,,FEW220,0.00,VWS V15.00,2014-09-19 18:34:00,
2014-09-19 11:39:00,70.1,44.0,30.01,NW,319,3.0,7.0,39,0.00,,FEW220,0.00,VWS V15.00,2014-09-19 18:39:00,
2014-09-19 11:44:00,70.2,44.1,30.01,NNE,28,4.0,7.0,39,0.00,,FEW220,0.00,VWS V15.00,2014-09-19 18:44:00,
2014-09-19 11:49:00,70.2,44.1,30.01,NNW,335,2.0,9.0,39,0.00,,FEW220,0.00,VWS V15.00,2014-09-19 18:49:00,
2014-09-19 11:54:00,70.7,44.5,30.00,NW,317,2.0,9.0,39,0.00,,FEW220,0.00,VWS V15.00,2014-09-19 18:54:00,
2014-09-19 11:58:00,71.0,44.1,30.00,NW,308,2.0,2.0,38,0.00,,FEW220,0.00,VWS V15.00,2014-09-19 18:58:00,
2014-09-19 12:03:00,71.2,44.3,30.00,North,11,7.0,7.0,38,0.00,,FEW220,0.00,VWS V15.00,2014-09-19 19:03:00,
2014-09-19 12:08:00,71.5,45.3,30.00,NNW,329,4.0,7.0,39,0.00,,FEW220,0.00,VWS V15.00,2014-09-19 19:08:00,
2014-09-19 12:12:00,71.6,44.0,30.00,North,354,5.0,7.0,37,0.00,,FEW220,0.00,VWS V15.00,2014-09-19 19:12:00,
2014-09-19 12:17:00,72.1,45.1,30.00,NW,317,4.0,7.0,38,0.00,,FEW220,0.00,VWS V15.00,2014-09-19 19:17:00,
2014-09-19 12:22:00,72.4,44.7,30.00,North,358,3.0,7.0,37,0.00,,FEW220,0.00,VWS V15.00,2014-09-19 19:22:00,
2014-09-19 12:27:00,72.4,44.7,30.00,NNW,340,3.0,7.0,37,0.00,,FEW220,0.00,VWS V15.00,2014-09-19 19:27:00,
2014-09-19 12:32:00,72.7,45.0,29.99,NNW,346,3.0,7.0,37,0.00,,FEW220,0.00,VWS V15.00,2014-09-19 19:32:00,
2014-09-19 12:37:00,72.9,45.1,29.99,NNE,13,6.0,7.0,37,0.00,,FEW220,0.00,VWS V15.00,2014-09-19 19:37:00,
2014-09-19 12:42:00,72.9,44.4,29.99,NNW,333,3.0,7.0,36,0.00,,FEW220,0.00,VWS V15.00,2014-09-19 19:42:00,
2014-09-19 12:47:00,73.5,45.7,29.99,NNW,347,4.0,10.0,37,0.00,,FEW220,0.00,VWS V15.00,2014-09-19 19:47:00,
2014-09-19 12:51:00,73.7,45.8,29.99,North,1,2.0,10.0,37,0.00,,FEW220,0.00,VWS V15.00,2014-09-19 19:51:00,
2014-09-19 12:56:00,74.0,43.9,29.98,ENE,65,3.0,10.0,34,0.00,,FEW220,0.00,VWS V15.00,2014-09-19 19:56:00,
2014-09-19 13:01:00,74.2,44.1,29.98,NNW,340,5.0,10.0,34,0.00,,FEW100,0.00,VWS V15.00,2014-09-19 20:01:00,
2014-09-19 13:06:00,74.6,45.9,29.98,NNE,22,3.0,10.0,36,0.00,,FEW100,0.00,VWS V15.00,2014-09-19 20:06:00,
2014-09-19 13:11:00,75.1,44.1,29.98,NW,310,5.0,10.0,33,0.00,,FEW100,0.00,VWS V15.00,2014-09-19 20:11:00,
2014-09-19 13:16:00,75.0,44.0,29.97,ENE,60,4.0,10.0,33,0.00,,FEW100,0.00,VWS V15.00,2014-09-19 20:16:00,
2014-09-19 13:21:00,74.9,44.7,29.97,NW,322,2.0,10.0,34,0.00,,FEW100,0.00,VWS V15.00,2014-09-19 20:21:00,
2014-09-19 13:26:00,75.3,44.2,29.97,NE,54,2.0,10.0,33,0.00,,FEW100,0.00,VWS V15.00,2014-09-19 20:26:00,
2014-09-19 13:30:00,75.6,43.7,29.96,NNW,333,8.0,10.0,32,0.00,,FEW100,0.00,VWS V15.00,2014-09-19 20:30:00,
2014-09-19 13:35:00,75.5,43.6,29.96,NW,313,0.0,10.0,32,0.00,,FEW100,0.00,VWS V15.00,2014-09-19 20:35:00,
2014-09-19 13:40:00,76.1,44.1,29.96,NW,316,3.0,10.0,32,0.00,,FEW100,0.00,VWS V15.00,2014-09-19 20:40:00,
2014-09-19 13:45:00,76.4,44.4,29.95,NE,36,8.0,11.0,32,0.00,,FEW100,0.00,VWS V15.00,2014-09-19 20:45:00,
2014-09-19 13:50:00,77.0,44.1,29.96,East,87,3.0,11.0,31,0.00,,FEW100,0.00,VWS V15.00,2014-09-19 20:50:00,
2014-09-19 13:55:00,77.2,43.4,29.95,NNE,25,0.0,11.0,30,0.00,,FEW100,0.00,VWS V15.00,2014-09-19 20:55:00,
2014-09-19 14:00:00,77.5,43.7,29.95,NNW,338,7.0,9.0,30,0.00,,FEW100,0.00,VWS V15.00,2014-09-19 21:00:00,
2014-09-19 14:05:00,77.7,42.9,29.95,NW,306,5.0,9.0,29,0.00,,FEW100,0.00,VWS V15.00,2014-09-19 21:05:00,
2014-09-19 14:10:00,78.1,43.3,29.94,NNW,335,5.0,9.0,29,0.00,,FEW100,0.00,VWS V15.00,2014-09-19 21:10:00,
2014-09-19 14:15:00,78.8,43.9,29.94,East,96,4.0,9.0,29,0.00,,FEW100,0.00,VWS V15.00,2014-09-19 21:15:00,
2014-09-19 14:20:00,79.3,43.4,29.94,NNW,333,0.0,9.0,28,0.00,,FEW100,0.00,VWS V15.00,2014-09-19 21:20:00,
2014-09-19 14:25:00,79.9,43.9,29.94,North,358,2.0,9.0,28,0.00,,FEW100,0.00,VWS V15.00,2014-09-19 21:25:00,
2014-09-19 14:30:00,80.1,44.1,29.94,ENE,73,3.0,9.0,28,0.00,,FEW100,0.00,VWS V15.00,2014-09-19 21:30:00,
2014-09-19 14:35:00,80.9,43.8,29.94,South,170,2.0,9.0,27,0.00,,FEW100,0.00,VWS V15.00,2014-09-19 21:35:00,
2014-09-19 14:40:00,81.5,44.3,29.94,SE,128,1.0,9.0,27,0.00,,FEW100,0.00,VWS V15.00,2014-09-19 21:40:00,
2014-09-19 14:45:00,81.7,42.5,29.93,ENE,70,3.0,9.0,25,0.00,,FEW100,0.00,VWS V15.00,2014-09-19 21:45:00,
2014-09-19 14:50:00,81.2,45.0,29.94,East,86,0.0,9.0,28,0.00,,FEW100,0.00,VWS V15.00,2014-09-19 21:50:00,
2014-09-19 14:55:00,81.2,44.1,29.93,SSE,165,0.0,9.0,27,0.00,,FEW100,0.00,VWS V15.00,2014-09-19 21:55:00,
2014-09-19 15:00:00,81.5,44.3,29.93,East,79,4.0,9.0,27,0.00,,FEW100,0.00,VWS V15.00,2014-09-19 22:00:00,
2014-09-19 15:05:00,81.2,43.1,29.93,ESE,115,2.0,9.0,26,0.00,,FEW100,0.00,VWS V15.00,2014-09-19 22:05:00,
2014-09-19 15:10:00,81.1,44.0,29.93,NE,39,0.0,10.0,27,0.00,,FEW100,0.00,VWS V15.00,2014-09-19 22:10:00,
2014-09-19 15:15:00,81.2,44.1,29.93,NE,51,0.0,10.0,27,0.00,,FEW100,0.00,VWS V15.00,2014-09-19 22:15:00,
2014-09-19 15:20:00,81.6,44.4,29.92,SSE,152,2.0,10.0,27,0.00,,FEW100,0.00,VWS V15.00,2014-09-19 22:20:00,
2014-09-19 15:25:00,82.1,42.8,29.92,ESE,122,0.0,10.0,25,0.00,,FEW100,0.00,VWS V15.00,2014-09-19 22:25:00,
2014-09-19 15:30:00,82.5,44.2,29.92,NE,43,2.0,10.0,26,0.00,,FEW100,0.00,VWS V15.00,2014-09-19 22:30:00,
2014-09-19 15:35:00,82.2,43.9,29.92,South,184,0.0,10.0,26,0.00,,FEW100,0.00,VWS V15.00,2014-09-19 22:35:00,
2014-09-19 15:40:00,82.3,43.0,29.92,South,185,1.0,10.0,25,0.00,,FEW100,0.00,VWS V15.00,2014-09-19 22:40:00,
2014-09-19 15:45:00,82.7,42.3,29.92,ENE,75,5.0,10.0,24,0.00,,FEW100,0.00,VWS V15.00,2014-09-19 22:45:00,
2014-09-19 15:50:00,82.3,44.0,29.92,SSE,147,0.0,10.0,26,0.00,,FEW100,0.00,VWS V15.00,2014-09-19 22:50:00,
2014-09-19 15:55:00,82.0,43.8,29.92,SW,224,1.0,10.0,26,0.00,,FEW100,0.00,VWS V15.00,2014-09-19 22:55:00,
2014-09-19 15:59:00,82.0,42.8,29.92,SE,140,4.0,5.0,25,0.00,,FEW100,0.00,VWS V15.00,2014-09-19 22:59:00,
2014-09-19 16:04:00,81.5,41.3,29.92,SE,140,2.0,6.0,24,0.00,,FEW100,0.00,VWS V15.00,2014-09-19 23:04:00,
2014-09-19 16:09:00,81.5,42.3,29.92,North,10,3.0,6.0,25,0.00,,FEW100,0.00,VWS V15.00,2014-09-19 23:09:00,
2014-09-19 16:14:00,80.9,41.8,29.91,East,86,1.0,6.0,25,0.00,,FEW100,0.00,VWS V15.00,2014-09-19 23:14:00,
2014-09-19 16:19:00,81.2,41.0,29.91,East,83,1.0,6.0,24,0.00,,FEW100,0.00,VWS V15.00,2014-09-19 23:19:00,
2014-09-19 16:24:00,81.2,42.1,29.91,NW,326,1.0,6.0,25,0.00,,FEW100,0.00,VWS V15.00,2014-09-19 23:24:00,
2014-09-19 16:29:00,81.4,41.2,29.91,NW,312,0.0,6.0,24,0.00,,FEW100,0.00,VWS V15.00,2014-09-19 23:29:00,
2014-09-19 16:34:00,81.5,41.3,29.91,East,84,1.0,6.0,24,0.00,,FEW100,0.00,VWS V15.00,2014-09-19 23:34:00,
2014-09-19 16:39:00,81.6,42.4,29.91,SSE,148,0.0,6.0,25,0.00,,FEW100,0.00,VWS V15.00,2014-09-19 23:39:00,
2014-09-19 16:44:00,81.9,41.6,29.91,SSW,209,0.0,6.0,24,0.00,,FEW100,0.00,VWS V15.00,2014-09-19 23:44:00,
2014-09-19 16:49:00,82.0,39.4,29.91,East,93,2.0,7.0,22,0.00,,FEW100,0.00,VWS V15.00,2014-09-19 23:49:00,
2014-09-19 16:54:00,81.6,41.3,29.91,East,87,3.0,7.0,24,0.00,,FEW100,0.00,VWS V15.00,2014-09-19 23:54:00,
2014-09-19 16:59:00,81.3,40.0,29.91,ENE,75,0.0,7.0,23,0.00,,FEW100,0.00,VWS V15.00,2014-09-19 23:59:00,
2014-09-19 17:04:00,81.1,38.7,29.91,SE,129,1.0,7.0,22,0.00,,FEW100,0.00,VWS V15.00,2014-09-20 00:04:00,
2014-09-19 17:09:00,81.0,39.8,29.91,ENE,71,2.0,7.0,23,0.00,,FEW100,0.00,VWS V15.00,2014-09-20 00:09:00,
2014-09-19 17:14:00,81.2,39.9,29.91,SW,221,0.0,7.0,23,0.00,,FEW100,0.00,VWS V15.00,2014-09-20 00:14:00,
2014-09-19 17:19:00,81.4,41.2,29.91,East,86,0.0,7.0,24,0.00,,FEW100,0.00,VWS V15.00,2014-09-20 00:19:00,
2014-09-19 17:24:00,81.1,39.8,29.91,ESE,104,2.0,7.0,23,0.00,,FEW100,0.00,VWS V15.00,2014-09-20 00:24:00,
2014-09-19 17:29:00,80.9,38.5,29.91,South,173,0.0,7.0,22,0.00,,FEW100,0.00,VWS V15.00,2014-09-20 00:29:00,
2014-09-19 17:34:00,80.9,38.5,29.91,ESE,122,0.0,7.0,22,0.00,,FEW100,0.00,VWS V15.00,2014-09-20 00:34:00,
2014-09-19 17:39:00,80.8,39.6,29.91,ESE,110,4.0,7.0,23,0.00,,FEW100,0.00,VWS V15.00,2014-09-20 00:39:00,
2014-09-19 17:44:00,80.6,39.4,29.91,ESE,108,4.0,7.0,23,0.00,,FEW100,0.00,VWS V15.00,2014-09-20 00:44:00,
2014-09-19 17:48:00,80.5,38.2,29.91,East,97,5.0,7.0,22,0.00,,FEW100,0.00,VWS V15.00,2014-09-20 00:48:00,
2014-09-19 17:53:00,80.5,38.2,29.91,ENE,70,7.0,7.0,22,0.00,,FEW100,0.00,VWS V15.00,2014-09-20 00:53:00,
2014-09-19 17:58:00,80.5,38.2,29.91,NE,54,0.0,4.0,22,0.00,,FEW100,0.00,VWS V15.00,2014-09-20 00:58:00,
2014-09-19 18:03:00,80.3,38.0,29.91,ESE,120,2.0,4.0,22,0.00,,FEW100,0.00,VWS V15.00,2014-09-20 01:03:00,
2014-09-19 18:08:00,80.2,40.2,29.91,ESE,103,0.0,5.0,24,0.00,,FEW100,0.00,VWS V15.00,2014-09-20 01:08:00,
2014-09-19 18:13:00,80.1,39.0,29.91,East,86,1.0,5.0,23,0.00,,FEW100,0.00,VWS V15.00,2014-09-20 01:13:00,
2014-09-19 18:18:00,79.9,38.8,29.91,East,82,1.0,5.0,23,0.00,,FEW100,0.00,VWS V15.00,2014-09-20 01:18:00,
2014-09-19 18:23:00,79.8,37.6,29.91,ENE,67,1.0,7.0,22,0.00,,FEW100,0.00,VWS V15.00,2014-09-20 01:23:00,
2014-09-19 18:28:00,79.9,37.7,29.91,SE,139,2.0,7.0,22,0.00,,FEW100,0.00,VWS V15.00,2014-09-20 01:28:00,
2014-09-19 18:33:00,79.8,37.6,29.91,East,98,2.0,7.0,22,0.00,,FEW100,0.00,VWS V15.00,2014-09-20 01:33:00,
2014-09-19 18:38:00,79.6,37.5,29.91,ENE,70,0.0,7.0,22,0.00,,FEW100,0.00,VWS V15.00,2014-09-20 01:38:00,
2014-09-19 18:43:00,79.4,38.4,29.91,East,89,1.0,7.0,23,0.00,,FEW100,0.00,VWS V15.00,2014-09-20 01:43:00,
2014-09-19 18:48:00,79.1,38.2,29.91,East,98,0.0,7.0,23,0.00,,FEW100,0.00,VWS V15.00,2014-09-20 01:48:00,
2014-09-19 18:53:00,78.8,37.9,29.91,East,99,0.0,7.0,23,0.00,,FEW100,0.00,VWS V15.00,2014-09-20 01:53:00,
2014-09-19 18:58:00,78.4,38.7,29.91,ESE,110,1.0,7.0,24,0.00,,FEW100,0.00,VWS V15.00,2014-09-20 01:58:00,
2014-09-19 19:03:00,78.1,38.4,29.91,East,98,0.0,7.0,24,0.00,,FEW100,0.00,VWS V15.00,2014-09-20 02:03:00,
2014-09-19 19:08:00,77.8,39.2,29.91,SE,135,0.0,7.0,25,0.00,,FEW100,0.00,VWS V15.00,2014-09-20 02:08:00,
2014-09-19 19:13:00,77.5,38.9,29.91,SE,135,0.0,7.0,25,0.00,,FEW100,0.00,VWS V15.00,2014-09-20 02:13:00,
2014-09-19 19:18:00,77.1,38.6,29.92,ESE,122,0.0,7.0,25,0.00,,FEW100,0.00,VWS V15.00,2014-09-20 02:18:00,
2014-09-19 19:23:00,76.9,38.4,29.92,ESE,122,0.0,7.0,25,0.00,,FEW100,0.00,VWS V15.00,2014-09-20 02:23:00,
2014-09-19 19:28:00,76.6,38.2,29.92,ESE,114,0.0,7.0,25,0.00,,FEW100,0.00,VWS V15.00,2014-09-20 02:28:00,
2014-09-19 19:33:00,76.5,39.1,29.92,East,88,2.0,7.0,26,0.00,,FEW100,0.00,VWS V15.00,2014-09-20 02:33:00,
2014-09-19 19:38:00,76.5,39.1,29.92,ENE,59,4.0,7.0,26,0.00,,FEW100,0.00,VWS V15.00,2014-09-20 02:38:00,
2014-09-19 19:43:00,76.5,40.1,29.92,NNE,15,3.0,7.0,27,0.00,,FEW100,0.00,VWS V15.00,2014-09-20 02:43:00,
2014-09-19 19:48:00,76.1,40.7,29.92,ENE,72,1.0,7.0,28,0.00,,FEW100,0.00,VWS V15.00,2014-09-20 02:48:00,
2014-09-19 19:53:00,75.8,40.4,29.92,ENE,76,1.0,7.0,28,0.00,,FEW100,0.00,VWS V15.00,2014-09-20 02:53:00,
2014-09-19 19:58:00,75.7,40.3,29.92,ESE,108,1.0,3.0,28,0.00,,FEW100,0.00,VWS V15.00,2014-09-20 02:58:00,
2014-09-19 20:03:00,75.6,41.1,29.92,North,353,2.0,5.0,29,0.00,,FEW100,0.00,VWS V15.00,2014-09-20 03:03:00,
2014-09-19 20:08:00,74.8,41.3,29.92,NNW,346,2.0,5.0,30,0.00,,FEW100,0.00,VWS V15.00,2014-09-20 03:08:00,
2014-09-19 20:13:00,73.8,41.3,29.93,NNE,20,1.0,5.0,31,0.00,,FEW100,0.00,VWS V15.00,2014-09-20 03:13:00,
2014-09-19 20:18:00,73.2,40.8,29.93,NNE,12,3.0,5.0,31,0.00,,FEW100,0.00,VWS V15.00,2014-09-20 03:18:00,
2014-09-19 20:23:00,72.9,40.5,29.93,NNW,334,0.0,5.0,31,0.00,,FEW100,0.00,VWS V15.00,2014-09-20 03:23:00,
2014-09-19 20:28:00,72.6,41.1,29.93,NE,36,0.0,5.0,32,0.00,,FEW100,0.00,VWS V15.00,2014-09-20 03:28:00,
2014-09-19 20:32:00,72.1,40.7,29.93,NW,323,1.0,5.0,32,0.00,,FEW100,0.00,VWS V15.00,2014-09-20 03:32:00,
2014-09-19 20:37:00,71.8,41.2,29.93,North,354,0.0,5.0,33,0.00,,FEW100,0.00,VWS V15.00,2014-09-20 03:37:00,
2014-09-19 20:42:00,71.5,40.9,29.93,North,2,1.0,5.0,33,0.00,,FEW100,0.00,VWS V15.00,2014-09-20 03:42:00,
2014-09-19 20:47:00,71.2,41.4,29.93,North,8,1.0,5.0,34,0.00,,FEW100,0.00,VWS V15.00,2014-09-20 03:47:00,
2014-09-19 20:52:00,71.1,41.3,29.93,NNE,20,1.0,5.0,34,0.00,,FEW100,0.00,VWS V15.00,2014-09-20 03:52:00,
2014-09-19 20:57:00,71.1,41.3,29.93,ENE,71,0.0,5.0,34,0.00,,FEW100,0.00,VWS V15.00,2014-09-20 03:57:00,
2014-09-19 21:02:00,71.1,40.6,29.93,NE,37,0.0,5.0,33,0.00,,FEW090,0.00,VWS V15.00,2014-09-20 04:02:00,
2014-09-19 21:07:00,71.1,41.3,29.93,NE,37,0.0,5.0,34,0.00,,FEW090,0.00,VWS V15.00,2014-09-20 04:07:00,
2014-09-19 21:12:00,70.8,41.1,29.93,NE,37,0.0,5.0,34,0.00,,FEW090,0.00,VWS V15.00,2014-09-20 04:12:00,
2014-09-19 21:17:00,70.5,40.8,29.93,NE,37,0.0,5.0,34,0.00,,FEW090,0.00,VWS V15.00,2014-09-20 04:17:00,
2014-09-19 21:22:00,70.6,40.1,29.93,NNE,18,0.0,5.0,33,0.00,,FEW090,0.00,VWS V15.00,2014-09-20 04:22:00,
2014-09-19 21:27:00,70.6,40.1,29.94,NNE,20,2.0,5.0,33,0.00,,FEW090,0.00,VWS V15.00,2014-09-20 04:27:00,
2014-09-19 21:32:00,70.8,40.3,29.94,ENE,64,0.0,5.0,33,0.00,,FEW090,0.00,VWS V15.00,2014-09-20 04:32:00,